Regional Weather Roundup
Issued by NWS Goodland, KS

Home | Current Version | Previous Version | Graphics & Text | Print | Product List | Glossary On
Versions: 1 2 3 4 5 6 7 8 9 10 11 12 13 14 15 16 17 18 19 20 21 22 23 24 25 26 27 28 29 30 31 32 33 34 35 36 37 38 39 40 41 42 43 44 45 46 47 48 49 50
000
ASUS43 KGLD 010108
RWRGLD

GOODLAND FORECAST AREA HOURLY WEATHER ROUNDUP
NATIONAL WEATHER SERVICE GOODLAND KS
700 PM MDT FRI JUL 31 2015

...OFFICIAL OBSERVATIONS...

CITY           SKY/WX    TMP DP  RH WIND       PRES   REMARKS
GOODLAND KS    SUNNY     84  60  44 S7        30.15R
HILL CITY KS   PTCLDY    89  63  41 SE7       30.07S
IMPERIAL NEB   SUNNY     91  46  21 E5        30.10S
MCCOOK NEB     PTCLDY    91  58  32 SE3       30.06S
AKRON CO       SUNNY     85  46  25 SE8       30.19S
BURLINGTON CO  SUNNY     83  54  36 S8        30.19R
LIMON CO       MOSUNNY   79  53  40 SE9       30.25S
$$

...UNOFFICIAL OBSERVATIONS...

CITY           SKY/WX    TMP DP  RH WIND       PRES   REMARKS
COLBY KS       CLEAR     88  61  40 SE9       30.13S
NORTON KS      CLEAR     88  54  31 SE7       30.07
SHARON SPRINGS   N/A     85  58  40 SE9         N/A
KIT CARSON CO    N/A     85  56  36 MISG        N/A
YUMA CO          N/A     86  57  37 CALM        N/A
$$


USA.gov is the U.S. government's official web portal to all federal, state and local government web resources and services.